Retour au catalogue

COSMOS 252 DEB

ActifLEO
NORAD 3554·DEBRIS·🇷🇺 Russia

Lancé Nov 1, 1968 depuis Baikonur Cosmodrome

Loading…

Prochains Passages (prochaines 24 heures)

TLE

FraisSource: Space-Track

Époque: Sep 14, 2026, 10:06 UTC

1 03554U 68097G   26257.42091546  .00001703  00000-0  43981-3 0  9999
2 03554  62.2691 162.7892 0541656 327.0942  29.7424 13.90688813837928

Suivez COSMOS 252 DEB en temps réel avec AllMySat

Download on the App Store